• Em Portugal
  • Lista de países
  • Para 7 dias
  • Temperatura da água
  • Mapas de satélite
  • Mapa do tempo
  • Widgets de tempo
  • user-avatar
    Iniciar Sessão

    Previsão horária em Al-Chums

    Hoje, 16 Dezembro, Sábado

    Tempo Temperatura Precipitação Vento Pressão Humidade
    00:00 +12°C° 0 mm 1 m/s 722 mmHg 86%
    01:00 +12°C° 0 mm 1 m/s 722 mmHg 86%
    02:00 +11°C° 0 mm 1 m/s 722 mmHg 88%
    03:00 +11°C° 0 mm 1 m/s 722 mmHg 87%
    04:00 +11°C° 0 mm 1 m/s 722 mmHg 86%
    05:00 +11°C° 0 mm 1 m/s 722 mmHg 86%
    06:00 +12°C° 0 mm 1 m/s 722 mmHg 81%
    07:00 +13°C° 0 mm 1 m/s 722 mmHg 76%
    08:00 +14°C° 0 mm 1 m/s 723 mmHg 66%
    09:00 +15°C° 0 mm 1 m/s 723 mmHg 61%
    10:00 +16°C° 0 mm 1 m/s 723 mmHg 56%
    11:00 +18°C° 0 mm 2 m/s 723 mmHg 51%
    12:00 +18°C° 0 mm 2 m/s 723 mmHg 50%
    13:00 +19°C° 0 mm 1 m/s 723 mmHg 49%
    14:00 +20°C° 0 mm 1 m/s 722 mmHg 47%
    15:00 +19°C° 0 mm 1 m/s 722 mmHg 52%
    16:00 +18°C° 0 mm 1 m/s 722 mmHg 57%
    17:00 +16°C° 0 mm 1 m/s 722 mmHg 62%
    18:00 +15°C° 0 mm 1 m/s 722 mmHg 65%
    19:00 +14°C° 0 mm 1 m/s 722 mmHg 68%
    20:00 +14°C° 0 mm 1 m/s 722 mmHg 71%
    21:00 +13°C° 0 mm 1 m/s 722 mmHg 73%
    22:00 +12°C° 0 mm 0 m/s 722 mmHg 75%
    23:00 +12°C° 0 mm 0 m/s 723 mmHg 77%

    Amanhã, 17 Dezembro, Domingo

    Tempo Temperatura Precipitação Vento Pressão Humidade
    00:00 +12°C° 0 mm 0 m/s 722 mmHg 75%
    01:00 +13°C° 0 mm 1 m/s 722 mmHg 73%
    02:00 +13°C° 0 mm 1 m/s 722 mmHg 72%
    03:00 +12°C° 0 mm 1 m/s 722 mmHg 72%
    04:00 +12°C° 0 mm 1 m/s 722 mmHg 72%
    05:00 +11°C° 0 mm 1 m/s 722 mmHg 72%
    06:00 +12°C° 0 mm 1 m/s 722 mmHg 67%
    07:00 +13°C° 0 mm 1 m/s 722 mmHg 63%
    08:00 +14°C° 0 mm 1 m/s 723 mmHg 58%
    09:00 +16°C° 0 mm 1 m/s 723 mmHg 52%
    10:00 +18°C° 0 mm 1 m/s 723 mmHg 46%
    11:00 +19°C° 0 mm 2 m/s 723 mmHg 40%
    12:00 +20°C° 0 mm 1 m/s 722 mmHg 37%
    13:00 +21°C° 0 mm 1 m/s 722 mmHg 34%
    14:00 +21°C° 0 mm 1 m/s 722 mmHg 31%
    15:00 +20°C° 0 mm 1 m/s 722 mmHg 35%
    16:00 +19°C° 0 mm 1 m/s 722 mmHg 38%
    17:00 +18°C° 0 mm 1 m/s 722 mmHg 41%
    18:00 +16°C° 0 mm 1 m/s 722 mmHg 42%
    19:00 +16°C° 0 mm 1 m/s 722 mmHg 43%
    20:00 +15°C° 0 mm 1 m/s 722 mmHg 44%
    21:00 +15°C° 0 mm 1 m/s 722 mmHg 44%
    22:00 +14°C° 0 mm 1 m/s 722 mmHg 44%
    23:00 +14°C° 0 mm 1 m/s 722 mmHg 44%

    Depois de amanhã, 18 Dezembro, Segunda-feira

    Tempo Temperatura Precipitação Vento Pressão Humidade
    00:00 +14°C° 0 mm 1 m/s 722 mmHg 45%
    01:00 +13°C° 0 mm 1 m/s 722 mmHg 45%
    02:00 +13°C° 0 mm 1 m/s 722 mmHg 46%
    03:00 +13°C° 0 mm 1 m/s 721 mmHg 46%
    04:00 +13°C° 0 mm 1 m/s 721 mmHg 46%
    05:00 +13°C° 0 mm 1 m/s 721 mmHg 46%
    06:00 +13°C° 0 mm 1 m/s 721 mmHg 45%
    07:00 +14°C° 0 mm 1 m/s 722 mmHg 44%
    08:00 +15°C° 0 mm 1 m/s 722 mmHg 43%
    09:00 +16°C° 0 mm 1 m/s 722 mmHg 39%
    10:00 +19°C° 0 mm 1 m/s 722 mmHg 35%
    11:00 +19°C° 0 mm 2 m/s 722 mmHg 31%
    12:00 +20°C° 0 mm 2 m/s 722 mmHg 30%
    13:00 +20°C° 0 mm 2 m/s 722 mmHg 29%
    14:00 +21°C° 0 mm 2 m/s 721 mmHg 28%
    15:00 +19°C° 0 mm 2 m/s 721 mmHg 31%
    16:00 +18°C° 0 mm 2 m/s 721 mmHg 33%
    17:00 +18°C° 0 mm 1 m/s 721 mmHg 36%
    18:00 +18°C° 0 mm 1 m/s 721 mmHg 38%
    19:00 +16°C° 0 mm 1 m/s 721 mmHg 39%
    20:00 +15°C° 0 mm 1 m/s 721 mmHg 40%
    21:00 +15°C° 0 mm 1 m/s 721 mmHg 41%
    22:00 +14°C° 0 mm 1 m/s 721 mmHg 41%
    23:00 +14°C° 0 mm 1 m/s 721 mmHg 42%

    19 Dezembro, Terça-feira

    Tempo Temperatura Precipitação Vento Pressão Humidade
    00:00 +14°C° 0 mm 1 m/s 721 mmHg 42%
    01:00 +14°C° 0 mm 1 m/s 721 mmHg 42%
    02:00 +12°C° 0 mm 0 m/s 721 mmHg 42%
    03:00 +12°C° 0 mm 0 m/s 721 mmHg 42%
    04:00 +12°C° 0 mm 0 m/s 721 mmHg 42%
    05:00 +12°C° 0 mm 0 m/s 721 mmHg 42%
    06:00 +14°C° 0 mm 1 m/s 722 mmHg 41%
    07:00 +15°C° 0 mm 1 m/s 722 mmHg 40%
    08:00 +15°C° 0 mm 1 m/s 723 mmHg 39%
    09:00 +18°C° 0 mm 1 m/s 723 mmHg 36%
    10:00 +19°C° 0 mm 1 m/s 723 mmHg 33%
    11:00 +21°C° 0 mm 1 m/s 723 mmHg 29%
    12:00 +20°C° 0 mm 2 m/s 723 mmHg 30%
    13:00 +20°C° 0 mm 2 m/s 723 mmHg 31%
    14:00 +20°C° 0 mm 2 m/s 722 mmHg 31%
    15:00 +19°C° 0 mm 2 m/s 722 mmHg 33%
    16:00 +18°C° 0 mm 2 m/s 722 mmHg 35%
    17:00 +17°C° 0 mm 2 m/s 722 mmHg 37%
    18:00 +17°C° 0 mm 2 m/s 722 mmHg 38%
    19:00 +16°C° 0 mm 2 m/s 722 mmHg 40%
    20:00 +16°C° 0 mm 2 m/s 723 mmHg 41%
    21:00 +16°C° 0 mm 2 m/s 722 mmHg 43%
    22:00 +15°C° 0 mm 2 m/s 722 mmHg 44%
    23:00 +15°C° 0 mm 2 m/s 722 mmHg 45%

    20 Dezembro, Quarta-feira

    Tempo Temperatura Precipitação Vento Pressão Humidade
    00:00 +15°C° 0 mm 2 m/s 722 mmHg 47%
    01:00 +15°C° 0 mm 2 m/s 721 mmHg 49%
    02:00 +15°C° 0 mm 2 m/s 721 mmHg 51%
    03:00 +13°C° 0 mm 3 m/s 721 mmHg 52%
    04:00 +13°C° 0 mm 3 m/s 721 mmHg 52%
    05:00 +13°C° 0 mm 3 m/s 720 mmHg 53%
    06:00 +13°C° 0 mm 3 m/s 720 mmHg 53%
    07:00 +13°C° 0 mm 3 m/s 721 mmHg 54%
    08:00 +13°C° 0 mm 3 m/s 721 mmHg 54%
    09:00 +14°C° 0 mm 3 m/s 721 mmHg 51%
    10:00 +15°C° 0 mm 2 m/s 721 mmHg 48%
    11:00 +16°C° 0 mm 2 m/s 720 mmHg 45%
    12:00 +17°C° 0 mm 2 m/s 720 mmHg 44%
    13:00 +17°C° 0 mm 2 m/s 720 mmHg 43%
    14:00 +18°C° 0 mm 2 m/s 719 mmHg 41%
    15:00 +17°C° 0 mm 2 m/s 719 mmHg 45%
    16:00 +16°C° 0 mm 1 m/s 719 mmHg 48%
    17:00 +15°C° 0 mm 1 m/s 719 mmHg 51%
    18:00 +14°C° 0 mm 1 m/s 719 mmHg 53%
    19:00 +14°C° 0 mm 1 m/s 719 mmHg 55%
    20:00 +12°C° 0 mm 0 m/s 720 mmHg 57%
    21:00 +12°C° 0 mm 1 m/s 719 mmHg 59%
    22:00 +12°C° 0 mm 1 m/s 719 mmHg 60%
    23:00 +12°C° 0 mm 1 m/s 719 mmHg 61%

    21 Dezembro, Quinta-feira

    Tempo Temperatura Precipitação Vento Pressão Humidade
    00:00 +11°C° 0 mm 1 m/s 719 mmHg 64%
    01:00 +11°C° 0 mm 1 m/s 719 mmHg 66%
    02:00 +11°C° 0 mm 1 m/s 719 mmHg 68%
    03:00 +11°C° 0 mm 1 m/s 718 mmHg 70%
    04:00 +11°C° 0 mm 1 m/s 718 mmHg 73%
    05:00 +10°C° 0 mm 1 m/s 718 mmHg 76%
    06:00 +11°C° 0 mm 1 m/s 718 mmHg 75%
    07:00 +12°C° 0 mm 2 m/s 718 mmHg 74%
    08:00 +13°C° 0 mm 2 m/s 718 mmHg 73%
    09:00 +13°C° 0 mm 4 m/s 718 mmHg 67%
    10:00 +14°C° 0 mm 5 m/s 718 mmHg 61%
    11:00 +15°C° 0 mm 7 m/s 718 mmHg 56%
    12:00 +15°C° 0,1 mm 8 m/s 717 mmHg 58%
    13:00 +13°C° 0,1 mm 9 m/s 716 mmHg 60%
    14:00 +13°C° 0,1 mm 10 m/s 716 mmHg 62%
    15:00 +12°C° 0,2 mm 9 m/s 716 mmHg 63%
    16:00 +11°C° 0,2 mm 9 m/s 715 mmHg 65%
    17:00 +10°C° 0,2 mm 8 m/s 715 mmHg 67%
    18:00 +9°C° 0,5 mm 7 m/s 715 mmHg 70%
    19:00 +8°C° 0,5 mm 6 m/s 714 mmHg 73%
    20:00 +8°C° 0,5 mm 5 m/s 714 mmHg 76%
    21:00 +8°C° 1,6 mm 5 m/s 713 mmHg 77%
    22:00 +7°C° 1,6 mm 6 m/s 713 mmHg 78%
    23:00 +7°C° 1,6 mm 6 m/s 712 mmHg 79%
    Mostrar mais

    XHprof extension not loaded